This demonstration page uses our WeatherBlox Daily Observations layout. Learn more.

Left ArrowRight Arrow

Hourly Observations for February 28, 2023

Temp ( °F °C ) Dew Point ( °F °C ) Humidity (%) Winds ( mph kmh ) Pressure ( in mb ) Visibility ( mi km ) Precip ( " mm )
12:53 am 00:53 Clear 60 15.6 44 6.7 55 55 W 10 17 29.66 1004 10 16 0.00 0.00
1:53 am 01:53 Clear 58 14.4 44 6.7 60 60 WNW 9 15 29.69 1005 10 16 0.00 0.00
2:53 am 02:53 Clear 56 13.3 44 6.7 64 64 W 8 13 29.71 1006 10 16 0.00 0.00
3:53 am 03:53 Clear 55 12.8 44 6.7 66 66 WSW 6 9 29.72 1006 10 16 0.00 0.00
4:53 am 04:53 Clear 51 10.6 44 6.7 77 77 W 6 9 29.74 1007 10 16 0.00 0.00
5:53 am 05:53 Clear 51 10.6 44 6.7 77 77 W 6 9 29.78 1008 10 16 0.00 0.00
6:53 am 06:53 Clear 46 7.8 42 5.6 86 86 Calm 29.80 1009 10 16 0.00 0.00
7:53 am 07:53 Sunny 47 8.3 44 6.7 90 90 Calm 29.81 1009 10 16 0.00 0.00
8:53 am 08:53 Sunny 54 12.2 46 7.8 74 74 WNW 8 13 29.83 1010 10 16 0.00 0.00
9:53 am 09:53 Sunny 56 13.3 46 7.8 69 69 WNW 6 9 29.84 1010 10 16 0.00 0.00
10:53 am 10:53 Sunny 58 14.4 46 7.8 65 65 Calm 29.84 1011 10 16 0.00 0.00
11:53 am 11:53 Sunny 60 15.6 43 6.1 53 53 VRB 3 6 29.84 1011 10 16 0.00 0.00
12:53 pm 12:53 Sunny 64 17.8 42 5.6 45 45 NW 5 7 29.84 1011 10 16 0.00 0.00
1:53 pm 13:53 Sunny 67 19.4 43 6.1 42 42 NNW 9 15 29.83 1010 10 16 0.00 0.00
2:53 pm 14:53 Sunny 68 20 40 4.4 36 36 NNW 5 7 29.83 1010 10 16 0.00 0.00
3:53 pm 15:53 Sunny 69 20.6 38 3.3 32 32 VRB 7 11 29.83 1010 10 16 0.00 0.00
4:53 pm 16:53 Sunny 69 20.6 37 2.8 31 31 Calm 29.83 1010 10 16 0.00 0.00
5:53 pm 17:53 Sunny 67 19.4 36 2.2 32 32 Calm 29.83 1010 10 16 0.00 0.00
6:53 pm 18:53 Clear 60 15.6 38 3.3 44 44 Calm 29.85 1011 10 16 0.00 0.00
7:53 pm 19:53 Clear 55 12.8 40 4.4 57 57 Calm 29.87 1011 10 16 0.00 0.00
8:53 pm 20:53 Clear 52 11.1 41 5 66 66 Calm 29.87 1012 10 16 0.00 0.00
9:53 pm 21:53 Clear 50 10 41 5 71 71 Calm 29.88 1012 10 16 0.00 0.00
10:53 pm 22:53 Clear 48 8.9 40 4.4 73 73 Calm 29.87 1012 10 16 0.00 0.00
11:53 pm 23:53 Clear 46 7.8 41 5 82 82 Calm 29.86 1011 10 16 0.00 0.00

Powered by AerisWeather